Location: Lake Arresoe
(56.0000°N, 12.5000°E)
Time: 02:25:31
(UTC+02:00)

CZ-3 Stage 3 - Visible Passes

Search period start: 18 June 2018 00:00
Search period end: 28 June 2018 00:00
Orbit: 408 x 34787 km, 30.8° (Epoch: 17 June)

Date Brightness Start Highest point End Pass type
(mag) Time Alt. Az. Time Alt. Az. Time Alt. Az.
18 Jun 8.9 23:00:30 10° ESE 01:41:10 25° ESE 02:36:53 10° E visible
20 Jun 7.2 02:29:19 10° SSW 09:35:43 36° SW 09:50:07 10° SSE visible
20 Jun 8.2 23:22:47 10° SSE 05:37:02 46° S 06:14:25 10° ESE daylight
21 Jun 8.8 22:44:11 10° ESE 01:30:20 26° ESE 02:27:22 10° E visible
23 Jun 7.2 02:13:03 10° SSW 09:25:35 36° SW 09:40:21 10° SSE visible
23 Jun 8.2 23:07:07 10° SSE 05:26:25 46° S 06:04:39 10° ESE daylight
24 Jun 8.8 22:27:57 10° ESE 01:19:25 26° ESE 02:17:46 10° E visible
26 Jun 7.1 01:57:13 10° SSW 09:15:24 37° SW 09:30:32 10° SSE visible
26 Jun 8.1 22:51:34 10° SSE 05:15:43 47° S 05:54:51 10° ESE daylight
